Weather History for Mansfield, OH

Change the Weather History Date:

Saturday, April 20, 2013

  Actual Average Record
Temperature  
Mean Temperature 37 °F 50 °F  
Max Temperature 43 °F 61 °F 82 °F (1985)
Min Temperature 31 °F 40 °F 24 °F (1926)
Degree Days  
Heating Degree Days 28 15  
Month to date heating degree days 337 365  
Since 1 July heating degree days 5685 5855  
Cooling Degree Days 0 0  
Month to date cooling degree days 6 0  
Year to date cooling degree days 6 1  
Moisture  
Dew Point 27 °F    
Average Humidity 64    
Maximum Humidity 82    
Minimum Humidity 46    
Precipitation  
Precipitation 0.01 in 0.14 in 1.42 in (1990)
Month to date precipitation 3.41 2.80  
Year to date precipitation 10.09 11.45  
Snow  
Snow 0.10 in 0.10 in - ()
Month to date snowfall 0.1 2.3  
Since 1 July snowfall 39.4 48.0  
Snow Depth 0.00 in    
Sea Level Pressure  
Sea Level Pressure 30.08 in    
Wind  
Wind Speed 11 mph (WSW)    
Max Wind Speed 22 mph    
Max Gust Speed 32 mph    
Visibility 10 miles    
Events Snow    
T = Trace of Precipitation, MM = Missing Value Source: NWS Daily Summary

Daily Weather History Graph

Daily Weather History Graph

Search for Another Location

Airport:

Trip Planner

Search our weather history database for the weather conditions in past years. The results will help you decide how hot, cold, wet, or windy it might be!

Date:

Astronomy

Apr. 20, 2013 Rise Set
Actual Time 6:43 AM EDT 8:15 PM EDT
Civil Twilight 6:14 AM EDT 8:44 PM EDT
Nautical Twilight 5:39 AM EDT 9:18 PM EDT
Astronomical Twilight 5:03 AM EDT 9:55 PM EDT
Moon 2:55 PM EDT (4/20) 3:34 AM EDT (4/20)
Length of Visible Light 14h 29m
Length of Day
13h 31m
Waxing Gibbous, 71% of the Moon is Illuminated
Apr 20
Waxing Gibbous
Apr 25
Full
May 2
Last Quarter
May 9
New
May 18
First Quarter

Hourly Weather History & Observations

Time (EDT) Temp. Windchill Dew Point Humidity Pressure Visibility Wind Dir Wind Speed Gust Speed Precip Events Conditions
12:17 AM 37.4 °F 28.5 °F 30.2 °F 75% 29.86 in 10.0 mi WSW 15.0 mph 27.6 mph N/A   Overcast
12:52 AM 37.0 °F 27.4 °F 30.0 °F 76% 29.90 in 10.0 mi SW 17.3 mph 27.6 mph N/A   Overcast
1:05 AM 35.6 °F 24.2 °F 30.2 °F 81% 29.88 in 10.0 mi SW 21.9 mph 32.2 mph N/A   Overcast
1:17 AM 35.6 °F 26.2 °F 30.2 °F 81% 29.88 in 10.0 mi WSW 15.0 mph 23.0 mph N/A   Overcast
1:52 AM 36.0 °F 27.1 °F 30.9 °F 82% 29.91 in 10.0 mi SW 13.8 mph 18.4 mph 0.00 in   Overcast
2:04 AM 35.6 °F 26.2 °F 30.2 °F 81% 29.89 in 10.0 mi SW 15.0 mph 24.2 mph N/A   Mostly Cloudy
2:40 AM 35.6 °F 24.8 °F 30.2 °F 81% 29.89 in 10.0 mi SW 19.6 mph 26.5 mph N/A   Mostly Cloudy
2:52 AM 35.1 °F 24.5 °F 30.0 °F 82% 29.92 in 10.0 mi SW 18.4 mph 26.5 mph N/A   Mostly Cloudy
3:39 AM 33.8 °F 24.8 °F 30.2 °F 87% 29.90 in 10.0 mi SW 12.7 mph 23.0 mph N/A   Mostly Cloudy
3:52 AM 35.1 °F 25.9 °F 30.0 °F 82% 29.93 in 10.0 mi SW 13.8 mph 23.0 mph N/A   Mostly Cloudy
4:38 AM 35.6 °F 25.5 °F 28.4 °F 75% 29.91 in 8.0 mi SW 17.3 mph - 0.00 in Snow Light Snow
4:52 AM 34.0 °F 25.5 °F 30.0 °F 85% 29.95 in 8.0 mi WSW 11.5 mph 23.0 mph 0.01 in Snow Light Snow
5:52 AM 34.0 °F 25.5 °F 28.0 °F 79% 29.97 in 9.0 mi WSW 11.5 mph 25.3 mph 0.00 in   Overcast
6:14 AM 33.8 °F 25.3 °F 28.4 °F 81% 29.96 in 9.0 mi West 11.5 mph 19.6 mph 0.00 in   Overcast
6:29 AM 33.8 °F 24.3 °F 28.4 °F 81% 29.97 in 10.0 mi WSW 13.8 mph - 0.00 in   Overcast
6:36 AM 33.8 °F 25.3 °F 28.4 °F 81% 29.97 in 10.0 mi WSW 11.5 mph - 0.00 in   Overcast
6:43 AM 33.8 °F 24.8 °F 28.4 °F 81% 29.97 in 10.0 mi WSW 12.7 mph 18.4 mph 0.00 in   Mostly Cloudy
6:52 AM 33.1 °F 24.9 °F 28.0 °F 82% 30.01 in 10.0 mi WSW 10.4 mph - 0.00 in   Scattered Clouds
7:23 AM 33.8 °F 25.3 °F 28.4 °F 81% 29.99 in 10.0 mi WSW 11.5 mph 18.4 mph N/A   Mostly Cloudy
7:52 AM 34.0 °F 25.5 °F 28.9 °F 82% 30.04 in 10.0 mi WSW 11.5 mph 17.3 mph N/A   Overcast
8:32 AM 35.6 °F 25.5 °F 26.6 °F 70% 30.03 in 10.0 mi West 17.3 mph 29.9 mph N/A   Mostly Cloudy
8:52 AM 35.1 °F 24.8 °F 27.0 °F 72% 30.07 in 10.0 mi West 17.3 mph 26.5 mph N/A   Overcast
9:20 AM 32.0 °F 22.5 °F 24.8 °F 75% 30.07 in 2.0 mi West 12.7 mph 29.9 mph 0.00 in Snow Light Snow
9:29 AM 33.8 °F 26.4 °F 24.8 °F 70% 30.07 in 9.0 mi West 9.2 mph 19.6 mph 0.00 in   Overcast
9:52 AM 35.1 °F 26.4 °F 25.0 °F 67% 30.12 in 10.0 mi WNW 12.7 mph 19.6 mph 0.00 in   Overcast
10:45 AM 35.6 °F 26.6 °F 24.8 °F 65% 30.12 in 10.0 mi WSW 13.8 mph 20.7 mph N/A   Mostly Cloudy
10:52 AM 36.0 °F 26.3 °F 25.0 °F 64% 30.15 in 10.0 mi West 16.1 mph 21.9 mph N/A   Overcast
11:52 AM 36.0 °F 26.7 °F 25.0 °F 64% 30.19 in 10.0 mi WSW 15.0 mph 21.9 mph N/A   Overcast
12:52 PM 39.0 °F 31.4 °F 25.0 °F 57% 30.20 in 10.0 mi WSW 12.7 mph 19.6 mph N/A   Overcast
1:52 PM 39.9 °F 31.4 °F 26.1 °F 58% 30.22 in 10.0 mi West 16.1 mph 20.7 mph N/A   Overcast
2:52 PM 39.9 °F 32.9 °F 24.1 °F 53% 30.24 in 10.0 mi WSW 11.5 mph 20.7 mph N/A   Overcast
3:52 PM 42.1 °F 36.1 °F 26.1 °F 53% 30.25 in 10.0 mi West 10.4 mph 19.6 mph N/A   Overcast
4:52 PM 41.0 °F 33.9 °F 23.0 °F 49% 30.27 in 10.0 mi West 12.7 mph 20.7 mph N/A   Overcast
5:52 PM 41.0 °F 34.7 °F 24.1 °F 51% 30.29 in 10.0 mi West 10.4 mph 18.4 mph N/A   Overcast
6:52 PM 41.0 °F 34.3 °F 24.1 °F 51% 30.31 in 10.0 mi WNW 11.5 mph 17.3 mph N/A   Overcast
7:52 PM 39.0 °F 32.8 °F 24.1 °F 55% 30.33 in 10.0 mi WNW 9.2 mph - N/A   Overcast
8:52 PM 37.0 °F 32.4 °F 24.1 °F 59% 30.36 in 10.0 mi NW 5.8 mph - N/A   Mostly Cloudy
9:52 PM 36.0 °F 29.6 °F 24.1 °F 62% 30.40 in 10.0 mi NNW 8.1 mph - N/A   Scattered Clouds
10:52 PM 33.1 °F 30.0 °F 24.1 °F 70% 30.42 in 10.0 mi NNW 3.5 mph - N/A   Scattered Clouds
11:52 PM 33.1 °F 30.0 °F 23.0 °F 66% 30.44 in 10.0 mi NNW 3.5 mph - N/A   Partly Cloudy